| time (UTC) | temp F | wind direction | speed knots | gust knots | rain 1hr in | rain 24hr in | rain mn in | humidity % | barometer mb |
| 20260505083021 | 59 | 158 | 7.0 | 8.7 | 0.00 | 0.02 | 0.00 | 59 | 1004.0 |
| 20260505082032 | 59 | 157 | 6.1 | 7.8 | 0.00 | 0.02 | 0.00 | 59 | 1003.9 |
| 20260505081034 | 59 | 169 | 7.8 | 12.2 | 0.00 | 0.02 | 0.00 | 59 | 1003.9 |
| 20260505080043 | 59 | 138 | 7.0 | 13.0 | 0.00 | 0.02 | 0.00 | 61 | 1004.0 |
| 20260505075025 | 58 | 132 | 7.8 | 12.2 | 0.00 | 0.02 | 0.00 | 63 | 1003.9 |
| 20260505074021 | 58 | 166 | 7.8 | 11.3 | 0.00 | 0.02 | 0.00 | 66 | 1004.0 |
| 20260505073020 | 57 | 162 | 9.6 | 13.0 | 0.00 | 0.02 | 0.00 | 68 | 1003.8 |
| 20260505072026 | 57 | 169 | 11.3 | 13.9 | 0.00 | 0.02 | 0.00 | 72 | 1003.8 |
| 20260505071049 | 57 | 169 | 12.2 | 16.5 | 0.00 | 0.02 | 0.00 | 72 | 1004.0 |
| 20260505070018 | 0 | 0.0 | 0.0 | 0.00 | 0.02 | 0.00 | 1004.1 | ||
| 20260505065023 | 57 | 152 | 10.4 | 13.0 | 0.00 | 0.02 | 0.00 | 71 | 1004.2 |
| 20260505064048 | 57 | 165 | 12.2 | 17.4 | 0.00 | 0.02 | 0.00 | 69 | 1004.3 |
| 20260505063047 | 57 | 157 | 13.0 | 19.1 | 0.00 | 0.02 | 0.00 | 65 | 1004.4 |
| 20260505062029 | 57 | 181 | 11.3 | 15.6 | 0.00 | 0.02 | 0.00 | 69 | 1004.5 |
| 20260505061026 | 57 | 156 | 10.4 | 15.6 | 0.00 | 0.02 | 0.00 | 71 | 1004.4 |
| 20260505060108 | 57 | 167 | 13.9 | 22.6 | 0.00 | 0.02 | 0.00 | 72 | 1004.4 |
| 20260505055027 | 57 | 144 | 10.4 | 15.6 | 0.00 | 0.02 | 0.02 | 71 | 1004.5 |
| 20260505054024 | 58 | 161 | 11.3 | 15.6 | 0.00 | 0.02 | 0.02 | 69 | 1004.6 |
| 20260505053024 | 58 | 148 | 10.4 | 15.6 | 0.01 | 0.02 | 0.02 | 69 | 1004.4 |
| 20260505052031 | 58 | 137 | 11.3 | 15.6 | 0.01 | 0.02 | 0.02 | 69 | 1004.2 |
| 20260505051026 | 58 | 147 | 11.3 | 15.6 | 0.01 | 0.02 | 0.02 | 69 | 1004.1 |
| 20260505041021 | 61 | 145 | 11.3 | 16.5 | 0.00 | 0.01 | 0.01 | 61 | 1003.0 |
| 20260505040027 | 62 | 156 | 7.8 | 10.4 | 0.00 | 0.01 | 0.01 | 57 | 1002.9 |
| 20260505035021 | 63 | 182 | 9.6 | 13.9 | 0.00 | 0.01 | 0.01 | 55 | 1002.5 |
| 20260505034102 | 64 | 169 | 8.7 | 11.3 | 0.00 | 0.01 | 0.01 | 54 | 1002.7 |
| 20260505033018 | 65 | 146 | 8.7 | 13.9 | 0.00 | 0.01 | 0.01 | 48 | 1002.4 |
| 20260505032053 | 65 | 166 | 8.7 | 12.2 | 0.00 | 0.01 | 0.01 | 48 | 1002.1 |
| 20260505031017 | 66 | 148 | 8.7 | 12.2 | 0.00 | 0.01 | 0.01 | 48 | 1001.9 |
| 20260505030018 | 66 | 176 | 7.8 | 12.2 | 0.00 | 0.01 | 0.01 | 48 | 1001.9 |
| 20260505025113 | 66 | 147 | 6.1 | 8.7 | 0.00 | 0.01 | 0.01 | 48 | 1001.9 |
| 20260505024027 | 66 | 172 | 5.2 | 7.0 | 0.00 | 0.01 | 0.01 | 48 | 1001.8 |
| 20260505023107 | 66 | 138 | 5.2 | 7.8 | 0.00 | 0.01 | 0.01 | 47 | 1001.9 |
| 20260505022024 | 67 | 169 | 5.2 | 7.8 | 0.00 | 0.01 | 0.01 | 47 | 1001.8 |
| 20260505021045 | 67 | 140 | 3.5 | 5.2 | 0.00 | 0.01 | 0.01 | 47 | 1001.8 |
| 20260505020025 | 67 | 138 | 2.6 | 4.3 | 0.00 | 0.01 | 0.01 | 46 | 1001.7 |
| 20260505015019 | 68 | 165 | 5.2 | 8.7 | 0.00 | 0.01 | 0.01 | 46 | 1001.7 |
| 20260505014018 | 68 | 141 | 7.0 | 10.4 | 0.00 | 0.01 | 0.01 | 45 | 1001.8 |
| 20260505013019 | 70 | 154 | 5.2 | 9.6 | 0.00 | 0.01 | 0.01 | 44 | 1001.9 |
| 20260505012020 | 70 | 118 | 6.1 | 10.4 | 0.00 | 0.01 | 0.01 | 44 | 1002.0 |
| 20260505011024 | 70 | 162 | 4.3 | 7.0 | 0.00 | 0.01 | 0.01 | 41 | 1002.0 |
| 20260505010021 | 70 | 180 | 4.3 | 5.2 | 0.00 | 0.01 | 0.01 | 40 | 1002.0 |
| 20260505005023 | 71 | 169 | 4.3 | 5.2 | 0.00 | 0.01 | 0.01 | 40 | 1001.9 |
| 20260505004022 | 72 | 176 | 2.6 | 4.3 | 0.00 | 0.01 | 0.01 | 39 | 1002.0 |
| 20260505003024 | 72 | 162 | 3.5 | 5.2 | 0.00 | 0.01 | 0.01 | 40 | 1002.2 |
| 20260505002026 | 71 | 39 | 1.7 | 4.3 | 0.00 | 0.01 | 0.01 | 40 | 1002.2 |
| 20260505001030 | 70 | 53 | 4.3 | 6.1 | 0.00 | 0.01 | 0.01 | 41 | 1002.3 |
| 20260505000033 | 71 | 322 | 3.5 | 6.1 | 0.00 | 0.01 | 0.01 | 42 | 1002.4 |
| 20260504235038 | 71 | 20 | 5.2 | 6.1 | 0.00 | 0.01 | 0.01 | 42 | 1002.3 |
| 20260504234034 | 72 | 356 | 7.0 | 10.4 | 0.00 | 0.01 | 0.01 | 42 | 1002.4 |
| 20260504233021 | 71 | 27 | 7.8 | 9.6 | 0.01 | 0.01 | 0.01 | 43 | 1002.6 |
| 20260504232022 | 70 | 42 | 7.8 | 9.6 | 0.01 | 0.01 | 0.01 | 43 | 1002.5 |
| 20260504231022 | 70 | 18 | 8.7 | 12.2 | 0.01 | 0.01 | 0.01 | 43 | 1002.5 |
| 20260504230032 | 71 | 25 | 7.8 | 11.3 | 0.01 | 0.01 | 0.01 | 42 | 1002.6 |
| 20260504225018 | 71 | 27 | 9.6 | 15.6 | 0.01 | 0.01 | 0.01 | 42 | 1002.6 |
| 20260504224021 | 71 | 28 | 11.3 | 15.6 | 0.01 | 0.01 | 0.01 | 43 | 1002.6 |
| 20260504223020 | 72 | 23 | 7.8 | 13.0 | 0.00 | 0.00 | 0.00 | 44 | 1002.9 |
| 20260504222046 | 70 | 40 | 7.0 | 9.6 | 0.00 | 0.00 | 0.00 | 47 | 1003.0 |
| 20260504221105 | 65 | 30 | 5.2 | 7.0 | 0.00 | 0.00 | 0.00 | 53 | 1003.2 |
| 20260504220029 | 67 | 55 | 7.8 | 14.8 | 0.00 | 0.00 | 0.00 | 54 | 1003.3 |
| 20260504215158 | 68 | 297 | 2.6 | 3.5 | 0.00 | 0.00 | 0.00 | 50 | 1003.1 |
| 20260504214025 | 67 | 203 | 4.3 | 7.8 | 0.00 | 0.00 | 0.00 | 52 | 1003.0 |
| 20260504213025 | 65 | 252 | 6.1 | 10.4 | 0.00 | 0.00 | 0.00 | 57 | 1003.1 |
| 20260504212107 | 69 | 259 | 8.7 | 13.0 | 0.00 | 0.00 | 0.00 | 46 | 1003.0 |
| 20260504211042 | 73 | 265 | 7.0 | 12.2 | 0.00 | 0.00 | 0.00 | 40 | 1002.9 |
| 20260504210018 | 74 | 202 | 5.2 | 7.8 | 0.00 | 0.00 | 0.00 | 39 | 1002.9 |
| 20260504205038 | 76 | 229 | 2.6 | 3.5 | 0.00 | 0.00 | 0.00 | 35 | 1002.7 |
| 20260504204020 | 78 | 232 | 4.3 | 6.1 | 0.00 | 0.00 | 0.00 | 34 | 1002.9 |
| 20260504203022 | 80 | 251 | 5.2 | 7.8 | 0.00 | 0.00 | 0.00 | 34 | 1002.8 |
| 20260504202048 | 82 | 259 | 2.6 | 7.0 | 0.00 | 0.00 | 0.00 | 32 | 1002.9 |
| 20260504201030 | 80 | 181 | 2.6 | 4.3 | 0.00 | 0.00 | 0.00 | 33 | 1002.9 |
| 20260504200214 | 80 | 271 | 3.5 | 5.2 | 0.00 | 0.00 | 0.00 | 34 | 1003.0 |
| 20260504195024 | 77 | 299 | 3.5 | 6.1 | 0.00 | 0.00 | 0.00 | 35 | 1003.1 |
| 20260504194042 | 80 | 258 | 4.3 | 6.1 | 0.00 | 0.00 | 0.00 | 33 | 1003.3 |
| 20260504193020 | 80 | 181 | 4.3 | 7.0 | 0.00 | 0.00 | 0.00 | 33 | 1003.4 |
| 20260504192032 | 79 | 130 | 2.6 | 6.1 | 0.00 | 0.00 | 0.00 | 34 | 1003.4 |
| 20260504191024 | 79 | 138 | 6.1 | 11.3 | 0.00 | 0.00 | 0.00 | 34 | 1003.4 |
| 20260504190026 | 78 | 174 | 6.1 | 10.4 | 0.00 | 0.00 | 0.00 | 35 | 1003.5 |
| 20260504185028 | 81 | 139 | 4.3 | 7.8 | 0.00 | 0.00 | 0.00 | 33 | 1003.9 |
| 20260504184032 | 82 | 132 | 4.3 | 6.1 | 0.00 | 0.00 | 0.00 | 34 | 1003.8 |
| 20260504183038 | 80 | 111 | 5.2 | 8.7 | 0.00 | 0.00 | 0.00 | 35 | 1004.0 |
| 20260504182018 | 79 | 168 | 7.0 | 11.3 | 0.00 | 0.00 | 0.00 | 34 | 1004.2 |
| 20260504181032 | 0 | 158 | 7.0 | 7.0 | 0.00 | 0.00 | 0.00 | 1004.2 | |
| 20260504180033 | 78 | 146 | 7.8 | 13.9 | 0.00 | 0.00 | 0.00 | 36 | 1004.2 |
| 20260504175019 | 77 | 150 | 7.0 | 9.6 | 0.00 | 0.00 | 0.00 | 36 | 1004.5 |
| 20260504174031 | 76 | 165 | 7.0 | 11.3 | 0.00 | 0.00 | 0.00 | 37 | 1004.4 |
| 20260504173017 | 76 | 161 | 7.0 | 9.6 | 0.00 | 0.00 | 0.00 | 38 | 1004.5 |
| 20260504172021 | 76 | 129 | 6.1 | 7.8 | 0.00 | 6.89 | 0.00 | 38 | 1004.7 |
| 20260504171021 | 75 | 123 | 5.2 | 8.7 | 0.00 | 6.89 | 0.00 | 40 | 1004.8 |
| 20260504151025 | 69 | 179 | 5.2 | 7.8 | 0.00 | 6.89 | 0.00 | 46 | 1005.2 |
| 20260504141016 | 66 | 85 | 3.5 | 4.3 | 0.00 | 6.89 | 0.00 | 48 | 1005.2 |